[[{"header":{"parameterUnit":"m.s-1","parameterCategory":1,"la1":30.2991,"la2":30.254,"lo1":-89.0895,"lo2":-89.0444,"dy":0.0017,"dx":0.0017,"nx":28,"ny":28,"refTime":"2023-11-22T09:00:00:Z","depth":0,"parameterNumber":2,"parameterNumberName":"U-component_of_WINDS"},"data":[0,0,0,0,0,0,0,0,0,0,0,0,0,0,0,0,0,0,0,0,0,0,0,0,0,0,0,0,0,0,0,0,0,0,0,0,0,0,0,0,0,0,0,0,0,0,0,0,0,0,0,0,0,0,0,0,0,0,1.7654,1.7654,0,1.7683,1.7683,1.7683,1.7678,1.7678,1.7677,1.7677,1.7707,1.7708,1.7709,0,0,0,0,0,0,0,0,0,0,0,0,0,1.7596,1.7597,1.7654,1.7654,1.7655,1.7683,1.7683,1.7684,1.7679,1.7678,1.7677,1.7677,1.7706,1.7708,1.7709,0,0,0,0,0,0,0,0,0,0,0,0,0,1.7623,1.7598,1.7654,1.7656,1.7656,1.7683,1.7683,1.7684,1.7679,1.7678,1.7677,1.7676,1.7706,1.7708,1.7709,1.7736,0,0,1.7715,1.7716,0,0,0,0,0,0,0,0,1.7621,1.7625,1.7655,1.7656,1.7656,1.7676,1.7674,1.7701,1.7679,1.767,1.7677,1.7676,1.7697,1.77,1.7707,1.7738,1.7739,1.7715,1.7717,1.7717,1.7718,0,0,0,0,0,0,0,1.7619,1.7624,1.7665,1.7655,1.7656,1.7655,1.7658,1.7679,1.7688,1.7671,1.7671,1.7674,1.7697,1.7705,1.7707,1.7739,1.7715,1.7717,1.7718,1.7719,1.7796,1.7797,0,0,0,0,0,0,1.7617,1.7622,1.7664,1.7666,1.7636,1.7657,1.766,1.7671,1.7687,1.7689,1.7675,1.7674,1.7702,1.7705,1.7708,1.7742,1.7717,1.7719,1.772,1.7795,1.7796,1.7797,0,0,0,0,0,0,1.7616,1.7621,1.7663,1.7644,1.765,1.7659,1.767,1.7672,1.7679,1.769,1.7692,1.7681,1.7702,1.7706,1.773,1.7743,1.772,1.7722,1.7794,1.7795,1.7796,1.7809,0,0,0,0,0,0,1.7614,1.762,1.763,1.7644,1.7651,1.7684,1.7671,1.7673,1.7682,1.7681,1.7696,1.7698,1.7701,1.7727,1.7732,1.7745,1.7723,1.7793,1.7794,1.7796,1.7807,1.781,1.7813,0,0,0,0,0,1.7612,1.7632,1.7631,1.7636,1.7663,1.7684,1.7688,1.7691,1.7683,1.7694,1.7701,1.7698,1.7741,1.773,1.7735,1.7749,1.7792,1.7794,1.7796,1.7806,1.781,1.7813,0,0,0,0,0,0,1.7618,1.7634,1.7632,1.7657,1.767,1.7683,1.7696,1.7695,1.771,1.7708,1.7712,1.7715,1.774,1.7747,1.7734,1.7777,1.7765,1.7769,1.7771,1.7775,1.7778,1.7776,1.7725,0,0,0,0,0,1.7623,1.7639,1.7651,1.7672,1.7679,1.7687,1.7696,1.7698,1.7711,1.7716,1.7725,1.7738,1.7754,1.7765,1.7781,1.7809,1.7812,1.7821,1.7824,1.7826,1.7829,1.7846,1.785,1.7804,1.7804,1.7804,0,0,1.7632,1.7642,1.7652,1.7674,1.7684,1.7701,1.7691,1.7709,1.7722,1.7718,1.7742,1.7749,1.7764,1.779,1.7802,1.7797,1.7843,1.7829,1.7831,1.7832,1.7848,1.7853,1.7857,1.7805,1.7805,1.7805,0,0,1.7657,1.7666,1.7685,1.7696,1.7711,1.7716,1.7721,1.7736,1.774,1.7764,1.7763,1.7778,1.7807,1.7818,1.7827,1.7859,1.7857,1.7864,1.7879,1.7895,1.7899,1.7902,1.7915,1.7919,1.7867,1.7867,1.7867,0,1.7667,1.7692,1.7695,1.7714,1.7725,1.7723,1.7743,1.7753,1.7773,1.778,1.7774,1.781,1.782,1.785,1.7858,1.7865,1.7871,1.7862,1.7898,1.7902,1.7905,1.7916,1.7921,1.7868,1.7867,1.7867,1.7867,0,1.7703,1.7721,1.7735,1.7754,1.7766,1.7785,1.7793,1.7805,1.7806,1.7812,1.7838,1.7849,1.7868,1.7876,1.7877,1.7906,1.7902,1.7897,1.7886,1.791,1.7921,1.7926,1.7869,1.7868,1.7868,1.7868,0,0,1.7732,1.7755,1.7759,1.7769,1.7787,1.7801,1.7821,1.784,1.785,1.7864,1.7882,1.7907,1.7903,1.7913,1.7916,1.793,1.7956,1.7923,1.7924,1.793,1.7991,1.7995,1.8,1.7955,1.7956,1.7957,1.799,0,1.7759,1.7794,1.7799,1.783,1.7847,1.7847,1.7865,1.7878,1.7885,1.7902,1.791,1.7928,1.792,1.7927,1.7941,1.795,1.7969,1.7948,1.7972,1.7973,1.7968,1.8005,1.8009,1.804,1.7994,1.7995,1.7995,0,1.7795,1.7811,1.7844,1.7861,1.7868,1.7884,1.7903,1.7918,1.7934,1.7938,1.7951,1.7952,1.7974,1.7962,1.7993,1.7979,1.7989,1.7996,1.7997,1.7999,1.7985,1.8009,1.805,1.8054,1.8002,1.8002,1.8001,0,1.7814,1.7843,1.7867,1.7876,1.7896,1.7907,1.7916,1.7931,1.7942,1.7959,1.7967,1.7986,1.7996,1.8011,1.8018,1.8009,1.8049,1.8037,1.8054,1.8054,1.8062,1.8061,1.8105,1.8068,1.8068,1.8068,1.8068,0,1.7844,1.7864,1.7876,1.7891,1.7914,1.7921,1.7944,1.7953,1.7966,1.7983,1.7985,1.8001,1.8009,1.8027,1.8032,1.8058,1.8062,1.8067,1.8068,1.8067,1.8066,1.8074,1.8072,1.8069,1.8069,1.8069,1.8069,0,1.7868,1.7877,1.7903,1.7921,1.7926,1.7942,1.7957,1.7972,1.798,1.8002,1.8007,1.802,1.8041,1.805,1.8075,1.8079,1.8109,1.8108,1.8103,1.8104,1.812,1.8119,1.817,1.8177,1.8136,1.8136,1.8136,0,1.7887,1.7903,1.7922,1.7934,1.7943,1.7962,1.7974,1.7982,1.7995,1.8015,1.8028,1.8049,1.8066,1.81,1.8112,1.8132,1.8132,1.8149,1.8135,1.8134,1.8133,1.8132,1.8134,1.8151,1.8152,1.8152,1.8152,0,1.7919,1.7923,1.7941,1.796,1.7975,1.7991,1.8006,1.8016,1.8026,1.8041,1.8063,1.8076,1.8103,1.8125,1.8146,1.8156,1.8156,1.8157,1.8162,1.816,1.8157,1.816,1.811,1.8155,1.8155,1.8155,1.8155,1.8154,1.7941,1.7956,1.7973,1.7993,1.8005,1.802,1.8036,1.8046,1.8064,1.8087,1.809,1.8114,1.8131,1.816,1.8171,1.819,1.8186,1.8193,1.8195,1.8197,1.8198,1.8154,1.8194,1.8194,1.8194,1.8194,1.8194,0,1.7974,1.7986,1.8004,1.8026,1.8042,1.8042,1.8059,1.8073,1.8094,1.811,1.8127,1.8153,1.8175,1.8189,1.8211,1.8223,1.8224,1.8229,1.8228,1.8231,1.82,1.8194,1.8228,1.8228,1.8228,1.8228,1.8228,1.8228,1.7993,1.8019,1.8025,1.8057,1.8068,1.8092,1.8102,1.8116,1.8129,1.8158,1.8176,1.8185,1.8201,1.8224,1.8244,1.8248,1.8256,1.8261,1.8265,1.8236,1.8233,1.8229,1.8223,1.8263,1.8263,1.8294,1.8294,1.8294]},{"header":{"parameterUnit":"m.s-1","parameterCategory":1,"la1":30.2991,"la2":30.254,"lo1":-89.0895,"lo2":-89.0444,"dy":0.0017,"dx":0.0017,"nx":28,"ny":28,"refTime":"2023-11-22T09:00:00:Z","depth":0,"parameterNumber":3,"parameterNumberName":"V-component_of_WINDS"},"data":[0,0,0,0,0,0,0,0,0,0,0,0,0,0,0,0,0,0,0,0,0,0,0,0,0,0,0,0,0,0,0,0,0,0,0,0,0,0,0,0,0,0,0,0,0,0,0,0,0,0,0,0,0,0,0,0,0,0,-6.0408,-6.0409,0,-6.0543,-6.0545,-6.0546,-6.0551,-6.0549,-6.0548,-6.0546,-6.0679,-6.0684,-6.0689,0,0,0,0,0,0,0,0,0,0,0,0,0,-6.015,-6.0155,-6.0408,-6.0409,-6.0411,-6.0543,-6.0545,-6.0547,-6.0551,-6.0549,-6.0547,-6.0545,-6.0678,-6.0683,-6.069,0,0,0,0,0,0,0,0,0,0,0,0,0,-6.0271,-6.0157,-6.0407,-6.043,-6.0433,-6.0542,-6.0545,-6.0547,-6.0552,-6.0549,-6.0547,-6.0545,-6.0676,-6.0683,-6.069,-6.0785,0,0,-6.0713,-6.0717,0,0,0,0,0,0,0,0,-6.0264,-6.0281,-6.0425,-6.0428,-6.0432,-6.0528,-6.0503,-6.0627,-6.0552,-6.0506,-6.0546,-6.0543,-6.063,-6.0642,-6.0672,-6.0792,-6.0797,-6.0714,-6.0719,-6.0722,-6.0724,0,0,0,0,0,0,0,-6.0256,-6.0275,-6.0461,-6.0427,-6.0431,-6.0432,-6.0446,-6.0526,-6.058,-6.051,-6.0511,-6.0527,-6.0632,-6.0665,-6.0675,-6.0799,-6.0714,-6.0721,-6.0725,-6.0728,-6.1006,-6.1009,0,0,0,0,0,0,-6.0244,-6.0268,-6.0457,-6.0465,-6.0341,-6.0438,-6.0454,-6.0499,-6.0579,-6.0589,-6.0529,-6.0527,-6.0653,-6.0666,-6.068,-6.0799,-6.0722,-6.0729,-6.0733,-6.1004,-6.1007,-6.101,0,0,0,0,0,0,-6.0238,-6.0261,-6.0451,-6.0367,-6.0391,-6.0445,-6.0496,-6.0503,-6.0536,-6.0594,-6.0603,-6.0553,-6.0652,-6.0669,-6.076,-6.0803,-6.0732,-6.0739,-6.1,-6.1005,-6.1009,-6.1035,0,0,0,0,0,0,-6.0231,-6.0259,-6.0296,-6.0368,-6.0396,-6.053,-6.0498,-6.0508,-6.055,-6.0548,-6.0618,-6.0628,-6.0651,-6.0749,-6.0768,-6.0812,-6.0745,-6.0997,-6.1002,-6.1007,-6.1031,-6.104,-6.1048,0,0,0,0,0,-6.0222,-6.0296,-6.0298,-6.0321,-6.0444,-6.0533,-6.0549,-6.0576,-6.0553,-6.0591,-6.0628,-6.0625,-6.0795,-6.0758,-6.0779,-6.0827,-6.0994,-6.1001,-6.1007,-6.1027,-6.1038,-6.1047,0,0,0,0,0,0,-6.0225,-6.0306,-6.0309,-6.0409,-6.0464,-6.0534,-6.0582,-6.0586,-6.0648,-6.0643,-6.0673,-6.0688,-6.0779,-6.0812,-6.0769,-6.0924,-6.0892,-6.0903,-6.09,-6.0911,-6.0919,-6.091,-6.0751,0,0,0,0,0,-6.0238,-6.0305,-6.0371,-6.0453,-6.0482,-6.0527,-6.0567,-6.0583,-6.0641,-6.0664,-6.0708,-6.0763,-6.0829,-6.0871,-6.0935,-6.1035,-6.1051,-6.1079,-6.1087,-6.1094,-6.1103,-6.1161,-6.1174,-6.1031,-6.1031,-6.1031,0,0,-6.0264,-6.0317,-6.0357,-6.0456,-6.0501,-6.0569,-6.0547,-6.0619,-6.067,-6.0674,-6.0764,-6.0798,-6.0862,-6.0958,-6.1003,-6.0988,-6.1146,-6.1102,-6.1107,-6.1113,-6.1169,-6.1182,-6.1194,-6.1036,-6.1035,-6.1034,0,0,-6.0348,-6.0394,-6.0469,-6.0515,-6.0585,-6.0615,-6.0633,-6.0703,-6.0727,-6.0818,-6.0823,-6.0883,-6.0996,-6.1042,-6.108,-6.1184,-6.1184,-6.1204,-6.1248,-6.1304,-6.1315,-6.1325,-6.1364,-6.1377,-6.1212,-6.1213,-6.1213,0,-6.0371,-6.0476,-6.0506,-6.058,-6.0624,-6.0634,-6.071,-6.0753,-6.0838,-6.0868,-6.0851,-6.0995,-6.1037,-6.1146,-6.1172,-6.1202,-6.1224,-6.1196,-6.1311,-6.1322,-6.1332,-6.1369,-6.1383,-6.1215,-6.1214,-6.1214,-6.1214,0,-6.0503,-6.0575,-6.0627,-6.0713,-6.0763,-6.0837,-6.0877,-6.0924,-6.0936,-6.0968,-6.1062,-6.1114,-6.119,-6.1217,-6.1228,-6.1328,-6.1317,-6.1305,-6.1273,-6.1347,-6.1382,-6.1397,-6.1218,-6.1217,-6.1216,-6.1216,0,0,-6.0591,-6.0695,-6.0713,-6.0754,-6.0833,-6.0889,-6.0964,-6.1041,-6.1081,-6.1139,-6.1204,-6.13,-6.1291,-6.1334,-6.1351,-6.14,-6.1482,-6.1382,-6.1384,-6.14,-6.1597,-6.1606,-6.1622,-6.1482,-6.1485,-6.1487,-6.1592,0,-6.0684,-6.082,-6.0851,-6.0967,-6.1036,-6.1048,-6.1113,-6.1168,-6.1201,-6.1262,-6.1297,-6.1366,-6.1348,-6.1374,-6.1423,-6.1461,-6.1522,-6.1454,-6.1542,-6.1545,-6.1527,-6.1641,-6.165,-6.1746,-6.1606,-6.1608,-6.161,0,-6.0811,-6.0877,-6.1001,-6.1074,-6.1104,-6.1162,-6.1237,-6.1295,-6.1358,-6.1379,-6.1429,-6.1441,-6.152,-6.1484,-6.1593,-6.1547,-6.1585,-6.1609,-6.1613,-6.1623,-6.1582,-6.1655,-6.1777,-6.1792,-6.1632,-6.163,-6.1629,0,-6.0865,-6.0984,-6.1075,-6.1109,-6.1195,-6.1237,-6.1274,-6.1335,-6.138,-6.1444,-6.1474,-6.1545,-6.1585,-6.1639,-6.1671,-6.1642,-6.1778,-6.1745,-6.1797,-6.1797,-6.1826,-6.1824,-6.1958,-6.1848,-6.1848,-6.1848,-6.1847,0,-6.0966,-6.1042,-6.1101,-6.1157,-6.1243,-6.1277,-6.136,-6.1398,-6.1452,-6.1515,-6.1528,-6.1587,-6.1625,-6.1689,-6.1714,-6.1801,-6.1818,-6.1837,-6.1843,-6.1837,-6.1834,-6.1862,-6.1857,-6.1852,-6.1851,-6.185,-6.1849,0,-6.1041,-6.1083,-6.1183,-6.1258,-6.1279,-6.1339,-6.1403,-6.1457,-6.1491,-6.1571,-6.1591,-6.1643,-6.1719,-6.1757,-6.185,-6.1867,-6.1967,-6.1967,-6.1946,-6.1949,-6.2,-6.1995,-6.2157,-6.2181,-6.2055,-6.2056,-6.2057,0,-6.1103,-6.1163,-6.1245,-6.129,-6.133,-6.14,-6.1448,-6.1483,-6.1532,-6.161,-6.1655,-6.1733,-6.1797,-6.1918,-6.1963,-6.2035,-6.2039,-6.2091,-6.2049,-6.2042,-6.2041,-6.2038,-6.2045,-6.2098,-6.2099,-6.21,-6.2101,0,-6.121,-6.1229,-6.1298,-6.1375,-6.1432,-6.1493,-6.1553,-6.1588,-6.1634,-6.1687,-6.1767,-6.1817,-6.1915,-6.1992,-6.2068,-6.2105,-6.2111,-6.2114,-6.213,-6.2125,-6.2111,-6.2121,-6.1968,-6.211,-6.2109,-6.2108,-6.2108,-6.2107,-6.1282,-6.1337,-6.1404,-6.1481,-6.1531,-6.1588,-6.1644,-6.1686,-6.1754,-6.1838,-6.1854,-6.1939,-6.2002,-6.2106,-6.2146,-6.2212,-6.2201,-6.2224,-6.223,-6.2235,-6.2239,-6.21,-6.2226,-6.2226,-6.2226,-6.2225,-6.2225,0,-6.1391,-6.1436,-6.1507,-6.1593,-6.1653,-6.1656,-6.1723,-6.1773,-6.1849,-6.1908,-6.1972,-6.2065,-6.214,-6.2193,-6.2269,-6.2312,-6.2317,-6.2331,-6.2329,-6.2338,-6.2244,-6.2223,-6.2327,-6.2327,-6.2327,-6.2327,-6.2327,-6.2327,-6.1455,-6.1549,-6.1576,-6.1695,-6.1738,-6.1824,-6.1863,-6.1915,-6.1964,-6.2067,-6.2131,-6.2166,-6.2223,-6.2304,-6.2374,-6.2387,-6.2415,-6.243,-6.2443,-6.2355,-6.2344,-6.2334,-6.2315,-6.2436,-6.2436,-6.2532,-6.2533,-6.2534]}]]